TimeAST,TemperatureF,Dew PointF,Humidity,Sea Level PressureIn,VisibilityMPH,Wind Direction,Wind SpeedMPH,Gust SpeedMPH,PrecipitationIn,Events,Conditions,WindDirDegrees,DateUTC
12:00 AM,36.7,31.6,82,29.91,-9999.0,SE,15.0,-,N/A,,Unknown,130,2013-02-20 04:00:00
1:00 AM,36.7,31.3,81,29.86,-9999.0,ESE,20.7,-,N/A,,Unknown,110,2013-02-20 05:00:00
2:00 AM,38,33,76,29.84,,ESE,23.0,,,,,120,2013-02-20 06:00:00
2:00 AM,38.1,33.1,82,29.84,-9999.0,ESE,23.0,-,N/A,,Unknown,120,2013-02-20 06:00:00
3:00 AM,38.5,34.5,86,29.81,-9999.0,ESE,21.9,-,N/A,,Unknown,120,2013-02-20 07:00:00
4:00 AM,38.3,36.0,91,29.74,-9999.0,ESE,25.3,-,N/A,,Unknown,110,2013-02-20 08:00:00
5:00 AM,39.4,37.4,93,29.67,-9999.0,East,26.5,33.4,N/A,,Unknown,100,2013-02-20 09:00:00
6:00 AM,39.6,37.8,93,29.60,-9999.0,East,28.8,35.7,N/A,,Unknown,100,2013-02-20 10:00:00
7:00 AM,39.9,38.5,95,29.51,-9999.0,East,31.1,39.1,0.02,,Unknown,90,2013-02-20 11:00:00
8:00 AM,40,39,96,29.42,,East,40.3,,,,,100,2013-02-20 12:00:00
8:00 AM,40.1,39.2,97,29.42,-9999.0,East,40.3,52.9,0.07,,Unknown,100,2013-02-20 12:00:00
9:00 AM,41.7,40.6,96,29.47,-9999.0,ESE,31.1,39.1,0.08,,Unknown,120,2013-02-20 13:00:00
10:00 AM,42.8,42.3,98,29.50,-9999.0,South,9.2,-,0.02,,Unknown,190,2013-02-20 14:00:00
11:00 AM,42.4,38.5,86,29.50,-9999.0,SW,12.7,21.9,N/A,,Unknown,220,2013-02-20 15:00:00
12:00 PM,43.0,37.6,81,29.49,-9999.0,SW,12.7,18.4,N/A,,Unknown,220,2013-02-20 16:00:00
1:00 PM,43.5,37.2,78,29.48,-9999.0,SSW,11.5,18.4,N/A,,Unknown,210,2013-02-20 17:00:00
2:00 PM,40,34,73,29.47,,WSW,13.8,,,,,240,2013-02-20 18:00:00
2:00 PM,39.6,34.3,82,29.47,-9999.0,WSW,13.8,-,N/A,,Unknown,240,2013-02-20 18:00:00
3:00 PM,39.7,31.6,73,29.47,-9999.0,WSW,15.0,23.0,N/A,,Unknown,240,2013-02-20 19:00:00
4:00 PM,38.5,31.3,75,29.47,-9999.0,WSW,13.8,19.6,N/A,,Unknown,240,2013-02-20 20:00:00
5:00 PM,37.9,32.0,79,29.49,-9999.0,WSW,15.0,24.2,N/A,,Unknown,240,2013-02-20 21:00:00
6:00 PM,37.6,30.2,75,29.51,-9999.0,SW,16.1,23.0,N/A,,Unknown,230,2013-02-20 22:00:00
7:00 PM,37.8,29.5,72,29.52,-9999.0,WSW,16.1,-,N/A,,Unknown,250,2013-02-20 23:00:00
8:00 PM,38,28,58,29.51,,WSW,16.1,,,,,250,2013-02-21 00:00:00
8:00 PM,37.6,28.4,69,29.51,-9999.0,WSW,16.1,21.9,N/A,,Unknown,250,2013-02-21 00:00:00
10:00 PM,36.5,27.9,71,29.50,-9999.0,WNW,20.7,-,N/A,,Unknown,290,2013-02-21 02:00:00
11:00 PM,35.8,29.3,77,29.51,-9999.0,WNW,19.6,-,N/A,,Unknown,290,2013-02-21 03:00:00